Location: Dappach
(48.9767°N, 9.6998°E)
Time: 21:33:27
(UTC+00:00)

COSMOS 2428 - Pass Details

Date: 22 August 2024
Orbit: 842 x 857 km, 70.9° (Epoch: 09 September)

Event Time Altitude Azimuth Distance (km) Brightness Sun altitude
Exits shadow 21:50:28 19° 74° (ENE) 1,936 4.4 -26.2°
Drops below altitude 10° 21:52:50 10° 52° (NE) 2,489 5.3 -26.4°
Sets 21:55:47 0° 38° (NE) 3,433 6.2 -26.6°
